{"data":{"norad_id":65327,"intl_designator":"2025-189E","name":"STARLINK-34880","alt_names":[],"object_type":"PAYLOAD","status":"ACTIVE","operator":null,"country":"US","launch_date":"2025-08-27","launch_site_code":"AFETR","launch_vehicle":null,"mission":null,"orbit_class":"UNKNOWN","rcs_meters":null,"size_class":null,"mass_kg":null,"dimensions":null,"purposes":["comms"],"wikipedia_slug":null,"has_3d_model":false,"image_url":null,"decayed_at":null,"tle_current":{"epoch":"2026-09-20T13:45:08.839872Z","epoch_age_seconds":111110,"freshness":"FRESH","line1":"1 65327U 25189E   26263.57301898  .00024977  00000+0  74783-3 0  9998","line2":"2 65327  53.1609  19.4568 0001061  97.9915 262.1209 15.34403775 60973","mean_motion":15.34403775,"eccentricity":0.0001061,"inclination_deg":53.1609,"raan_deg":19.4568,"arg_perigee_deg":97.9915,"mean_anomaly_deg":262.1209,"bstar":0.00074783,"rev_number":6097,"period_min":93.847527193421,"perigee_km":461.96620817553,"apogee_km":463.4178320936,"semimajor_km":6840.8290201346,"source":"CELESTRAK","updated_at":"2026-09-21T09:00:35.569548Z"}}}